Skip Page Navigation
NASA JPL Caltech
NASA Logo - Jet Propulsion Laboratory + View the NASA Portal
+ Near-Earth Object (NEO) Program
Search JPL
JPL Home Earth Solar System Stars & Galaxies Technology
JPL Solar System Dynamics
BODIES ORBITS EPHEMERIDES TOOLS PHYSICAL DATA DISCOVERY FAQ SITE MAP
JPL Small-Body Database Browser
Search: [ help ]  
52334 Oberammergau (1992 FS3)
Classification: Main-belt Asteroid          SPK-ID: 2052334
Ephemeris | Orbit Diagram | Orbital Elements | Physical Parameters | Discovery Circumstances | Close-Approach Data ]

[ show orbit diagram ]
Orbital Elements at Epoch 2457000.5 (2014-Dec-09.0) TDB
Reference: JPL 13 (heliocentric ecliptic J2000)
 Element Value Uncertainty (1-sigma)   Units 
e .1261943075791527 5.7321e-08  
a 2.404046713781225 1.8037e-08 AU
q 2.100669703347666 1.3637e-07 AU
i 3.020552408158699 6.4685e-06 deg
node 30.51605765104152 0.0001211 deg
peri 69.67601679044938 0.00012742 deg
M 101.5359864369768 3.4457e-05 deg
tp 2456616.500842078303
(2013-Nov-20.00084208)
0.00013155 JED
period 1361.484747455683
3.73
1.5323e-05
4.195e-08
d
yr
n .2644172111900345 2.9758e-09 deg/d
Q 2.707423724214784 2.0313e-08 AU
  Orbit Determination Parameters
   # obs. used (total)      545  
   data-arc span      8066 days (22.08 yr)  
   first obs. used      1992-03-30  
   last obs. used      2014-04-30  
   planetary ephem.      DE431  
   SB-pert. ephem.      SB431-BIG16  
   condition code      0  
   fit RMS      .57366  
   data source      ORB  
   producer      Otto Matic  
   solution date      2015-Mar-09 16:38:59  

Additional Information
 Earth MOID = 1.11961 AU 
 T_jup = 3.511 
[ show covariance matrix ]

Ephemeris | Orbit Diagram | Orbital Elements | Physical Parameters | Discovery Circumstances | Close-Approach Data ]

Physical Parameter Table
Parameter Symbol Value Units Sigma Reference Notes
absolute magnitude H 15.3 mag n/a MPO270399  

52334 Oberammergau           Discovered 1992 Mar. 30 by F. Börngen at Tautenburg.
Oberammergau, situated in the Bavarian Alps, is the festival place of a famous Passion Play, according to tradition held every 10 years since 1634. It is produced entirely with local villagers taking all the parts and singing in the chorus.
NOTE: some special characters may not display properly (any characters within {} are an attempt to place the proper accent above a character)
Reference: 20031110/MPCPages.arcLast Updated: 2003-11-12

[ show close-approach data ]
Alternate Designations
 1992 FS3 = 1996 HJ9 = 1996 HX26 = 2001 QJ217 
Ephemeris | Orbit Diagram | Orbital Elements | Physical Parameters | Discovery Circumstances | Close-Approach Data ]
ABOUT SSD CREDITS/AWARDS PRIVACY/COPYRIGHT GLOSSARY LINKS
FirstGov 2015-Jun-29 23:07 UT
(server date/time)  
NASA Home Page
Site Manager:   Ryan S. Park
Webmaster  Alan B. Chamberlin